Location: Lake Sonoma
(38.7200°N, 123.0564°W)
Time: 08:45:51
(UTC-07:00)

Daily predictions for brighter satellites

Satellite Brightness Start Highest point End
(mag) Time Altitude Azimuth Time Altitude Azimuth Time Altitude Azimuth
NOSS 3-1 (A) 4.0 21:01:36 10° S 21:06:42 32° ESE 21:12:10 10° NE
YAOGAN 11 4.1 21:06:06 10° SSE 21:10:25 79° ENE 21:14:49 10° N
Tiangong 1 0.9 21:15:19 10° WSW 21:18:26 81° SSE 21:21:32 10° ENE
ERBS 4.0 21:16:14 10° SSE 21:18:28 16° ESE 21:20:41 10° E
Cosmos 1300 4.2 21:18:50 10° NNE 21:21:52 22° ENE 21:24:50 10° SE
ALOS 3.5 21:19:01 10° S 21:23:26 43° W 21:27:53 10° NNW
Cosmos 1500 Rocket 4.3 21:20:41 10° SSW 21:24:58 57° W 21:29:20 10° N
Cosmos 2227 Rocket 3.7 21:22:00 10° SE 21:25:17 16° E 21:28:34 10° ENE
OAO 2 Rocket 3.9 21:21:11 10° SW 21:26:10 43° SSE 21:31:11 10° E
ERS-1 Rocket 3.0 21:21:19 10° SSE 21:26:20 87° ENE 21:31:25 10° NNW
ATLAS 2AS CENTAUR R/B 4.0 21:23:48 10° SSE 21:29:08 22° ESE 21:34:44 10° ENE
Envisat 3.2 21:26:15 10° SSE 21:31:12 58° ENE 21:36:11 10° N
Cosmos 2151 2.9 21:30:57 10° S 21:35:08 81° E 21:39:21 10° N
Hubble Space Telescope 2.7 21:36:17 10° SSW 21:38:14 13° SSE 21:39:09 12° SSE
Cosmos 2058 3.1 21:35:04 10° S 21:39:01 50° E 21:43:00 10° NNE
Delta 2 Rocket 3.2 21:36:05 10° W 21:39:45 51° S 21:42:30 15° ESE
Cosmos 2333 Rocket 3.6 21:40:40 10° N 21:45:22 25° NE 21:49:33 12° ESE
Nadezhda 2 Rocket 4.4 21:40:36 10° S 21:46:42 77° E 21:52:48 10° N
Cosmos 1437 Rocket 4.4 21:44:51 10° NNW 21:48:18 32° W 21:51:46 10° SSW
ARGOS 4.1 21:45:02 14° ESE 21:48:54 32° ENE 21:53:37 10° N
Cosmos 1937 Rocket 4.0 21:44:26 10° SSE 21:49:13 37° ESE 21:53:59 10° NE
Cosmos 2112 Rocket 4.1 21:44:10 10° NNW 21:49:26 79° WSW 21:54:32 11° SSE
Cosmos 1726 2.9 21:47:44 10° N 21:51:17 37° ENE 21:53:31 19° SE
PSLV R/B 3.3 21:49:43 19° SSE 21:51:44 54° ENE 21:54:43 10° N
Cosmos 2297 Rocket 3.6 21:49:41 15° SE 21:51:49 19° E 21:55:37 10° ENE
NOSS 3-1 (C) 3.4 21:46:03 10° SSW 21:51:52 87° WNW 21:58:20 10° NNE
deb Chang Zheng 4 4.1 21:48:18 10° N 21:52:36 61° WNW 21:56:52 10° SSW
Cosmos 2219 Rocket 2.9 21:51:40 10° N 21:56:53 38° ENE 22:00:37 18° ESE
COSMOS 2428 2.7 21:51:51 10° NNW 21:57:34 79° ENE 22:02:01 17° SSE
Sich 1 3.3 21:54:15 13° SSE 21:58:02 50° E 22:02:17 10° NNE
DELTA 2 R/B(2) 3.3 21:56:40 10° W 21:58:17 65° N 21:59:47 17° ENE
Cosmos 1939 Rocket 3.5 21:55:49 10° S 21:59:38 52° W 22:03:27 10° NNW
Cosmos 2298 Rocket 4.0 21:55:51 10° SSW 22:01:10 83° ESE 22:06:30 10° NNE
Cosmos 1151 Rocket 4.4 21:59:00 10° NNW 22:03:00 38° W 22:07:01 10° SSW
Meteor 1-4 Rocket 3.3 22:00:34 10° N 22:04:03 37° ENE 22:05:37 24° SE
Cosmos 1633 Rocket 3.1 22:01:05 15° S 22:04:37 56° E 22:08:54 10° NNE
Cosmos 2242 Rocket 4.1 22:02:44 10° N 22:07:03 45° E 22:09:29 23° SE
CZ-4B R/B 3.6 22:05:24 10° NNE 22:10:38 63° ESE 22:15:16 12° S
SPOT 5 3.0 22:09:53 15° S 22:13:40 70° WSW 22:18:32 10° NNW
USA 245 2.5 22:14:25 41° E 22:14:33 42° ENE 22:16:44 10° N
Cosmos 1980 4.3 22:14:21 10° N 22:19:43 43° ENE 22:22:45 23° ESE
Cosmos 1805 Rocket 4.4 22:17:23 10° SSW 22:21:44 52° W 22:26:04 10° N
Cosmos 292 Rocket 3.7 22:17:55 10° NNW 22:22:41 71° ENE 22:25:07 29° SSE
Cosmos 1271 Rocket 2.7 22:22:09 10° N 22:25:59 69° E 22:27:29 35° SSE
Cosmos 1346 3.9 22:27:13 34° E 22:27:13 34° E 22:29:45 10° NNE
H-2A R/B 2.9 22:27:08 24° ESE 22:29:36 37° ENE 22:34:34 10° N
MetOp-B 4.4 22:25:45 18° S 22:29:45 66° WSW 22:35:06 10° NNW
Iridium 2 3.8 22:29:37 37° SSE 22:30:51 58° E 22:34:39 10° NNE
CZ-4C R/B 3.7 22:30:31 34° E 22:31:07 36° ENE 22:34:21 10° N
Cosmos 220 Rocket 4.0 22:26:57 10° SSW 22:31:18 83° WNW 22:35:45 10° NNE
Cosmos 1626 2.8 22:31:10 35° ESE 22:31:34 36° E 22:35:03 10° NNE
Cosmos 2237 Rocket 2.6 22:26:12 10° NNW 22:31:45 49° ENE 22:34:29 28° ESE
OTV 4 1.0 22:30:32 10° WSW 22:32:50 42° SSW 22:32:50 42° SSW
Landsat 7 4.2 22:32:29 31° SE 22:34:21 48° ENE 22:38:56 10° N
Cosmos 2333 4.5 22:29:45 10° NNW 22:35:26 64° WSW 22:38:55 24° S
Cosmos 1898 Rocket 4.2 22:30:32 10° SSW 22:35:35 55° WNW 22:40:43 10° N
Cosmos 2082 3.7 22:31:20 15° S 22:36:07 65° ESE 22:41:47 10° NNE
Cosmos 1703 3.2 22:34:27 29° S 22:36:22 88° W 22:40:18 10° N
SL-14 R/B 4.4 22:33:52 10° SSW 22:37:37 43° W 22:41:28 10° N
H-2A R/B 4.3 22:34:45 10° SW 22:38:12 21° W 22:41:41 10° NW
YAOGAN 6 3.3 22:36:33 26° SSW 22:38:13 49° W 22:41:44 10° NNW
Cosmos 2360 Rocket 4.3 22:36:51 10° NW 22:40:51 20° W 22:44:50 10° SW
Cosmos 1125 Rocket 4.2 22:40:43 31° ESE 22:41:40 34° E 22:46:25 10° NE
SPOT 1/Viking Rocket 3.7 22:39:09 26° S 22:42:07 71° WSW 22:47:17 10° NNW
NOAA 11 4.1 22:41:39 29° SSE 22:44:33 86° WSW 22:50:03 10° NNW
Terra 2.2 22:48:51 37° ESE 22:50:13 48° ENE 22:54:48 10° N
SL-08 RB Rocket 3.6 22:49:12 38° S 22:50:53 80° WSW 22:55:24 10° NNW
ERBS 3.7 22:51:41 10° WSW 22:55:01 41° NW 22:58:21 10° NNE
Tiangong 1 2.4 22:52:15 10° WNW 22:55:10 38° N 22:56:26 25° NE
SAR-Lupe-2 4.2 22:58:18 41° ENE 22:58:18 41° ENE 23:01:39 10° N
Cosmos 1470 Rocket 3.6 22:56:36 35° SSW 22:58:22 73° W 23:02:41 10° N
Cosmos 1933 Rocket 3.7 22:57:30 34° SSW 22:59:22 75° W 23:03:51 10° N
Spot 4 4.3 23:00:39 41° ESE 23:01:48 49° ENE 23:06:28 10° N
Cosmos 1703 Rocket 4.5 23:00:51 10° NNE 23:04:48 32° ENE 23:05:01 32° E
Cosmos 2227 Rocket 2.5 23:03:05 10° SSW 23:08:41 65° WNW 23:14:20 10° NNE
OAO 2 Rocket 3.4 23:05:30 10° WSW 23:10:44 59° S 23:11:35 52° SE
BREEZE-M DEB (TANK) 3.8 23:12:41 38° E 23:12:41 38° E 23:17:19 10° ENE
Nadezhda 1 Rocket 4.1 23:07:47 10° NNW 23:13:51 71° W 23:16:39 34° SSW
Lacrosse 4 Rocket 2.2 23:11:34 10° NNW 23:15:49 43° ENE 23:16:24 40° E
NOSS 0 Rocket 4.4 23:13:11 10° NNW 23:19:08 53° WSW 23:21:28 35° SSW
ATLAS 2AS CENTAUR R/B 3.1 23:11:46 10° SW 23:19:13 77° NW 23:27:19 10° NNE
Cosmos 1455 2.6 23:16:13 10° NNW 23:19:56 53° W 23:20:13 52° WSW
COS B Rocket 4.4 23:18:41 10° NNE 23:21:50 34° ENE 23:21:50 34° ENE
Cosmos 2221 Rocket 3.9 23:19:43 10° N 23:24:10 51° E 23:24:17 51° E
DMSP B5D2-2 4.1 23:21:33 10° N 23:26:47 77° WNW 23:28:36 42° SSW
SL-16 R/B 2.4 23:21:12 10° NNW 23:26:51 62° ENE 23:28:09 48° ESE
Cosmos 1933 3.5 23:23:24 10° N 23:27:12 63° ENE 23:27:12 63° ENE
Cosmos 468 4.4 23:22:58 10° NNW 23:28:20 86° WSW 23:29:22 59° S
ARGOS 4.5 23:26:33 22° SW 23:29:03 31° W 23:33:50 10° NW
Cosmos 2333 Rocket 2.9 23:24:22 10° NW 23:29:52 47° WSW 23:31:34 36° SSW
ATLAS 3B R/B 2.7 23:24:39 10° NNW 23:31:39 74° NE 23:33:49 45° SE
Cosmos 1709 Rocket 3.9 23:32:07 44° S 23:34:12 87° W 23:40:20 10° N
Cosmos 2297 Rocket 2.7 23:31:24 19° SW 23:35:21 56° WNW 23:40:55 10° NNE
CARTOSAT-1 4.2 23:39:23 43° WSW 23:39:45 44° W 23:43:54 10° NNW
Cosmos 2219 Rocket 3.6 23:35:58 10° NW 23:40:36 27° WSW 23:42:21 23° SW
COSMOS 2455 2.7 23:36:54 10° NNW 23:42:58 89° WSW 23:44:11 59° SSE
USA 238 DEB 4.4 23:39:49 10° NNW 23:46:36 47° NE 23:49:31 31° ESE
USA 238 4.4 23:39:56 10° NNW 23:46:42 47° NE 23:49:38 31° ESE
NOSS 2-3 (E) 4.0 23:52:55 58° SW 23:53:51 78° NW 23:59:25 10° NNE
